Regional Weather Roundup
Issued by NWS

Home | Current Version | Previous Version | Graphics & Text | Print | Product List | Glossary On
Versions: 1 2 3 4 5 6 7 8 9 10 11 12 13 14 15 16 17 18 19 20 21 22 23 24 25 26 27 28 29 30 31 32 33 34 35 36 37 38 39 40 41 42 43 44 45 46 47 48 49 50
810
ASUS43 KOAX 072010
RWRNE

WEATHER ROUNDUP FOR NEBRASKA
NATIONAL WEATHER SERVICE OMAHA NE
200 PM CST WED DEC 07 2016

NOTES: SATELLITE DATA IS BEING USED TO AUGMENT CLOUD COVER ABOVE
       12000 FEET.
       "FAIR" INDICATES FEW OR NO CLOUDS BELOW 12,000 FEET WITH NO
       SIGNIFICANT WEATHER AND/OR OBSTRUCTIONS TO VISIBILITY.

  * THESE STATIONS DO NOT REPORT WEATHER SUCH AS RAIN...SNOW OR FOG.

NEZ001>004-019>022-054>056-072100-
NEBRASKA PANHANDLE

CITY           SKY/WX    TMP DP  RH WIND       PRES   REMARKS
SCOTTSBLUFF    PTSUNNY   14   0  53 NW18G24   30.31R WCI  -3
ALLIANCE       MOSUNNY   14   2  58 N12       30.26S WCI   0
CHADRON        SUNNY     12  -4  48 NW23G29   30.35S WCI  -7
KIMBALL        CLOUDY    10   4  76 NW17G24   30.22S WCI  -8
SIDNEY         CLOUDY    12   4  70 NW17      30.26R HAZE    WCI  -5
$$

NEZ057>060-069>072-079>082-072100-
SOUTHWEST NEBRASKA

CITY           SKY/WX    TMP DP  RH WIND       PRES   REMARKS
NORTH PLATTE   PTSUNNY   21   4  47 NW14      30.31S WCI   8
IMPERIAL       FLURRIES  16   8  71 N13       30.30S WCI   2
LEXINGTON      PTSUNNY   23   3  42 NW14G22   30.32S WCI  11
MCCOOK         LGT SNOW  18  11  74 NW10      30.34R WCI   6
OGALLALA       LGT SNOW  18  10  73 NW12      30.31R WCI   5
$$

NEZ005>010-023>029-035>040-094-072100-
NORTH CENTRAL NEBRASKA

CITY           SKY/WX    TMP DP  RH WIND       PRES   REMARKS
VALENTINE      SUNNY     16  -1  47 NW18G26   30.31F WCI   0
AINSWORTH      SUNNY     16   1  53 NW20G28   30.30S WCI  -1
BROKEN BOW     PTSUNNY   21   1  41 NW20      30.30S WCI   6
O`NEILL        MOSUNNY   18   2  49 NW23      30.31S WCI   1
ORD            PTSUNNY   21   0  39 NW17      30.31F WCI   7
THEDFORD       CLOUDY    19   2  47 NW16G25   30.29F WCI   5
$$

NEZ041-046>049-061>064-073>077-083>087-072100-
SOUTH CENTRAL NEBRASKA

CITY           SKY/WX    TMP DP  RH WIND       PRES   REMARKS
GRAND ISLAND   CLOUDY    21   3  45 NW14      30.32F WCI   8
AURORA         CLOUDY    22   5  47 NW17G23   30.32S WCI   8
HASTINGS       PTSUNNY   23   3  42 NW16      30.33S WCI  10
HEBRON         CLOUDY    26   7  44 NW10G17   30.34S WCI  16
HOLDREGE       MOSUNNY   21   9  59 NW12      30.31S WCI  10
KEARNEY *      SUNNY     23   1  39 NW14G20   30.32S WCI  11
YORK           CLOUDY    23   5  46 NW15G22   30.32S WCI  10
$$

NEZ011>018-030>034-042>045-072100-
NORTHEAST NEBRASKA

CITY           SKY/WX    TMP DP  RH WIND       PRES   REMARKS
NORFOLK        MOSUNNY   20   2  45 NW18      30.28F WCI   5
ALBION         CLOUDY    21   2  43 NW18G29   30.30S WCI   6
BLAIR          CLOUDY    24   9  52 NW16      30.29S WCI  11
FREMONT        MOSUNNY   25   8  48 NW18      30.32S WCI  11
TEKAMAH        MOSUNNY   23   8  52 W18G24    30.31S WCI   9
WAYNE          MOSUNNY   22   5  48 NW17G25   30.28S WCI   7
$$

NEZ050>053-065>068-078-088>093-072100-
SOUTHEAST NEBRASKA

CITY           SKY/WX    TMP DP  RH WIND       PRES   REMARKS
LINCOLN        CLOUDY    24   5  44 NW16G24   30.35S WCI  11
OMAHA EPPLEY   CLOUDY    25   8  48 NW16G25   30.31F WCI  12
BEATRICE       CLOUDY    25   8  46 NW15      30.33F WCI  13
FALLS CITY     CLOUDY    26  10  50 NW16      30.32F WCI  14
NEBRASKA CITY  CLOUDY    24   4  43 NW16      30.32S WCI  10
PLATTSMOUTH    CLOUDY    24   5  44 NW17      30.31S WCI  10
$$

NEZ044-045-051>053-067-072100-
OMAHA AREA

CITY           SKY/WX    TMP DP  RH WIND       PRES   REMARKS
OMAHA EPPLEY   CLOUDY    25   8  48 NW16G25   30.31F WCI  12
BLAIR          CLOUDY    24   9  52 NW16      30.29S WCI  11
FREMONT        MOSUNNY   25   8  48 NW18      30.32S WCI  11
MILLARD        CLOUDY    25   8  48 NW13G25   30.32S WCI  13
OFFUTT AFB     CLOUDY    24   7  48 NW17      30.31F WCI  11
PLATTSMOUTH    CLOUDY    24   5  44 NW17      30.31S WCI  10
WAHOO          MOCLDY    24   7  48 NW17G23   30.32S WCI  10
$$




USA.gov is the U.S. government's official web portal to all federal, state and local government web resources and services.